EW0499 Weather Reports


time (UTC)temp
C
wind
direction
speed
KPH
gust
KPH
rain 1hr
cm
rain 24hr
cm
rain mn
cm
humidity
%
barometer
mb
20260505040005 8 313 3.2 11.3 0.00 0.00 0.00 57 1013.8
20260505035804 8 321 3.2 11.3 0.00 0.00 0.00 57 1013.8
20260505035605 8 305 3.2 11.3 0.00 0.00 0.00 56 1013.8
20260505035405 7 305 6.4 11.3 0.00 0.00 0.00 56 1013.7
20260505035205 7 309 4.8 11.3 0.00 0.00 0.00 56 1013.7
20260505035004 7 302 4.8 8.0 0.00 0.00 0.00 57 1013.8
20260505034825 7 312 6.4 8.0 0.00 0.00 0.00 56 1013.8
20260505034625 7 309 3.2 8.0 0.00 0.00 0.00 56 1013.7
20260505034426 7 0 0.0 0.0 0.00 0.00 0.00 56 1013.8
20260505034205 7 0 0.0 0.0 0.00 0.00 0.00 56 1013.8
20260505034005 7 0 0.0 4.8 0.00 0.00 0.00 56 1013.9
20260505033805 7 0 0.0 4.8 0.00 0.00 0.00 55 1013.8
20260505033604 7 0 0.0 6.4 0.00 0.00 0.00 55 1013.8
20260505033405 7 0 0.0 6.4 0.00 0.00 0.00 55 1013.8
20260505033205 7 321 1.6 6.4 0.00 0.00 0.00 55 1013.8
20260505033005 7 318 3.2 6.4 0.00 0.00 0.00 55 1013.7
20260505032804 7 295 1.6 6.4 0.00 0.00 0.00 54 1013.8
20260505032605 8 295 0.0 3.2 0.00 0.00 0.00 54 1013.8
20260505032404 8 295 0.0 3.2 0.00 0.00 0.00 54 1013.8
20260505032237 8 295 0.0 3.2 0.00 0.00 0.00 54 1013.7
20260505032004 8 295 1.6 3.2 0.00 0.00 0.00 54 1013.7
20260505031805 8 296 1.6 4.8 0.00 0.00 0.00 54 1013.7
20260505031605 8 296 1.6 4.8 0.00 0.00 0.00 54 1013.7
20260505031405 8 296 1.6 4.8 0.00 0.00 0.00 54 1013.6
20260505031226 8 296 3.2 4.8 0.00 0.00 0.00 54 1013.6
20260505031025 8 287 3.2 4.8 0.00 0.00 0.00 54 1013.6
20260505030826 8 294 1.6 4.8 0.00 0.00 0.00 53 1013.6
20260505030604 8 308 3.2 4.8 0.00 0.00 0.00 53 1013.6
20260505030405 8 318 1.6 6.4 0.00 0.00 0.00 53 1013.6
20260505030205 8 322 1.6 9.7 0.00 0.00 0.00 53 1013.6
20260505030005 8 295 1.6 9.7 0.00 0.00 0.00 53 1013.5
20260505025805 8 290 1.6 9.7 0.00 0.00 0.00 53 1013.5
20260505025605 8 297 4.8 14.5 0.00 0.00 0.00 52 1013.5
20260505025404 8 298 4.8 14.5 0.00 0.00 0.00 53 1013.4
20260505025205 8 298 4.8 14.5 0.00 0.00 0.00 52 1013.4
20260505025005 8 295 4.8 14.5 0.00 0.00 0.00 52 1013.5
20260505024804 8 314 4.8 14.5 0.00 0.00 0.00 52 1013.5
20260505024604 8 304 4.8 14.5 0.00 0.00 0.00 52 1013.4
20260505024405 8 308 3.2 14.5 0.00 0.00 0.00 52 1013.4
20260505024226 8 306 4.8 14.5 0.00 0.00 0.00 52 1013.4
20260505024026 8 316 6.4 14.5 0.00 0.00 0.00 52 1013.4
20260505023829 8 329 6.4 14.5 0.00 0.00 0.00 52 1013.4
20260505023605 8 335 8.0 14.5 0.00 0.00 0.00 52 1013.3
20260505023405 8 306 4.8 11.3 0.00 0.00 0.00 52 1013.4
20260505023204 8 298 3.2 11.3 0.00 0.00 0.00 52 1013.3
20260505023004 8 312 4.8 11.3 0.00 0.00 0.00 52 1013.2
20260505022804 8 303 6.4 14.5 0.00 0.00 0.00 52 1013.2
20260505022604 8 298 6.4 16.1 0.00 0.00 0.00 52 1013.2
20260505022404 8 309 6.4 16.1 0.00 0.00 0.00 52 1013.2
20260505022205 8 309 4.8 16.1 0.00 0.00 0.00 51 1013.1
20260505022005 8 307 6.4 22.5 0.00 0.00 0.00 51 1013.2
20260505021804 8 294 8.0 22.5 0.00 0.00 0.00 51 1013.1
20260505021604 8 289 6.4 22.5 0.00 0.00 0.00 51 1013.1
20260505021404 8 300 9.7 22.5 0.00 0.00 0.00 51 1013.1
20260505021225 8 291 9.7 22.5 0.00 0.00 0.00 51 1013.0
20260505021025 8 302 8.0 20.9 0.00 0.00 0.00 51 1013.1
20260505020825 8 298 8.0 17.7 0.00 0.00 0.00 51 1013.0
20260505020604 8 291 6.4 17.7 0.00 0.00 0.00 51 1013.0
20260505020405 8 300 8.0 17.7 0.00 0.00 0.00 51 1013.0
20260505020204 8 284 9.7 16.1 0.00 0.00 0.00 51 1013.0
20260505020004 8 289 6.4 19.3 0.00 0.00 0.00 51 1013.0
20260505015805 8 311 6.4 19.3 0.00 0.00 0.00 51 1012.9
20260505015604 8 305 6.4 19.3 0.00 0.00 0.00 51 1012.9
20260505015404 8 302 6.4 19.3 0.00 0.00 0.00 51 1012.8
20260505015205 8 330 9.7 24.1 0.00 0.00 0.00 51 1012.8
20260505015005 8 324 8.0 24.1 0.00 0.00 0.00 50 1012.9
20260505014804 9 314 9.7 24.1 0.00 0.00 0.00 50 1012.9
20260505014604 9 308 11.3 24.1 0.00 0.00 0.00 50 1012.9
20260505014405 9 312 16.1 24.1 0.00 0.00 0.00 50 1012.9
20260505014204 9 323 14.5 22.5 0.00 0.00 0.00 50 1012.8
20260505014005 9 311 11.3 22.5 0.00 0.00 0.00 50 1012.9
20260505013805 9 305 11.3 22.5 0.00 0.00 0.00 50 1012.9
20260505013604 9 304 11.3 24.1 0.00 0.00 0.00 50 1012.8
20260505013404 9 316 11.3 24.1 0.00 0.00 0.00 50 1012.8
20260505013205 9 331 12.9 24.1 0.00 0.00 0.00 49 1012.8
20260505013004 9 313 9.7 24.1 0.00 0.00 0.00 49 1012.8
20260505012804 9 320 11.3 24.1 0.00 0.00 0.00 49 1012.8
20260505012604 9 309 14.5 22.5 0.00 0.00 0.00 49 1012.8
20260505012404 9 293 8.0 20.9 0.00 0.00 0.00 49 1012.8
20260505012205 9 308 12.9 20.9 0.00 0.00 0.00 49 1012.8
20260505012004 9 316 9.7 20.9 0.00 0.00 0.00 49 1012.8
20260505011804 9 295 11.3 20.9 0.00 0.00 0.00 49 1012.7
20260505011604 10 311 8.0 20.9 0.00 0.00 0.00 49 1012.7
20260505011405 10 314 9.7 20.9 0.00 0.00 0.00 49 1012.7
20260505011204 10 297 9.7 16.1 0.00 0.00 0.00 49 1012.7
20260505011005 9 300 8.0 16.1 0.00 0.00 0.00 49 1012.6
20260505010804 9 306 9.7 16.1 0.00 0.00 0.00 49 1012.7
20260505010604 9 313 6.4 19.3 0.00 0.00 0.00 50 1012.7
20260505010404 9 298 6.4 25.7 0.00 0.00 0.00 50 1012.6
20260505010204 9 284 9.7 27.4 0.00 0.00 0.00 49 1012.6
20260505010005 9 286 6.4 27.4 0.00 0.00 0.00 50 1012.7
20260505005804 9 306 11.3 27.4 0.00 0.00 0.00 49 1012.7
20260505005604 10 311 14.5 27.4 0.00 0.00 0.00 49 1012.7
20260505005404 10 310 16.1 27.4 0.00 0.00 0.00 49 1012.7
20260505005204 10 302 16.1 27.4 0.00 0.00 0.00 49 1012.7
20260505005005 10 312 17.7 27.4 0.00 0.00 0.00 48 1012.7
20260505004804 10 288 11.3 27.4 0.00 0.00 0.00 49 1012.6
20260505004604 10 306 12.9 27.4 0.00 0.00 0.00 48 1012.7
20260505004405 10 311 9.7 27.4 0.00 0.00 0.00 48 1012.7
20260505004204 10 327 11.3 27.4 0.00 0.00 0.00 47 1012.6
20260505004004 10 314 14.5 27.4 0.00 0.00 0.00 47 1012.6
20260505003804 10 312 14.5 27.4 0.00 0.00 0.00 47 1012.7
20260505003604 10 318 12.9 27.4 0.00 0.00 0.00 47 1012.7
20260505003404 10 325 12.9 27.4 0.00 0.00 0.00 47 1012.6
20260505003204 10 328 14.5 24.1 0.00 0.00 0.00 47 1012.6
20260505003004 10 320 12.9 24.1 0.00 0.00 0.00 48 1012.6
20260505002805 10 309 16.1 24.1 0.00 0.00 0.00 47 1012.6
20260505002604 10 324 9.7 24.1 0.00 0.00 0.00 48 1012.6
20260505002425 10 328 16.1 24.1 0.00 0.00 0.00 47 1012.7
20260505002226 10 334 12.9 25.7 0.00 0.00 0.00 49 1012.7
20260505002025 10 299 14.5 30.6 0.00 0.00 0.00 48 1012.6
20260505001805 10 308 17.7 30.6 0.00 0.00 0.00 48 1012.6
20260505001604 10 318 16.1 30.6 0.00 0.00 0.00 49 1012.5
20260505001405 10 308 17.7 30.6 0.00 0.00 0.00 49 1012.5
20260505001204 10 320 16.1 27.4 0.00 0.00 0.00 49 1012.5
20260505001004 10 321 16.1 25.7 0.00 0.00 0.00 50 1012.6
20260505000805 10 320 16.1 25.7 0.00 0.00 0.00 50 1012.6
20260505000604 10 324 12.9 27.4 0.00 0.00 0.00 50 1012.5
20260505000405 10 328 17.7 27.4 0.00 0.00 0.00 50 1012.5
20260505000205 10 345 14.5 29.0 0.00 0.00 0.00 49 1012.5
20260505000007 10 327 14.5 30.6 0.00 0.00 0.00 49 1012.5
20260504235804 10 334 16.1 30.6 0.00 0.00 0.00 49 1012.5
20260504235605 10 310 16.1 30.6 0.00 0.00 0.00 49 1012.5
20260504235404 10 309 19.3 30.6 0.00 0.00 0.00 49 1012.6
20260504235204 10 323 19.3 30.6 0.00 0.00 0.00 49 1012.5
20260504235004 10 324 14.5 30.6 0.00 0.00 0.00 49 1012.5
20260504234804 10 330 16.1 30.6 0.00 0.00 0.00 49 1012.5
20260504234604 10 306 17.7 30.6 0.00 0.00 0.00 49 1012.6
20260504234405 10 306 17.7 29.0 0.00 0.00 0.00 49 1012.6
20260504234204 10 321 16.1 29.0 0.00 0.00 0.00 49 1012.6
20260504234005 10 320 17.7 29.0 0.00 0.00 0.00 48 1012.6
20260504233804 10 305 16.1 29.0 0.00 0.00 0.00 48 1012.6
20260504233604 10 299 19.3 29.0 0.00 0.00 0.00 47 1012.6
20260504233404 10 301 16.1 29.0 0.00 0.00 0.00 48 1012.5
20260504233205 10 302 12.9 29.0 0.00 0.00 0.00 49 1012.5
20260504233004 10 296 12.9 29.0 0.00 0.00 0.00 49 1012.5
20260504232804 10 301 19.3 29.0 0.00 0.00 0.00 48 1012.5
20260504232604 10 283 16.1 29.0 0.00 0.00 0.00 49 1012.5
20260504232404 10 288 14.5 27.4 0.00 0.00 0.00 48 1012.4
20260504232204 10 313 12.9 27.4 0.00 0.00 0.00 48 1012.5
20260504232004 10 301 12.9 27.4 0.00 0.00 0.00 48 1012.5
20260504231804 10 312 16.1 27.4 0.00 0.00 0.00 48 1012.5
20260504231604 10 301 14.5 27.4 0.00 0.00 0.00 48 1012.5
20260504231404 10 319 16.1 25.7 0.00 0.00 0.00 47 1012.5
20260504231204 10 305 14.5 25.7 0.00 0.00 0.00 47 1012.5
20260504231005 10 287 17.7 25.7 0.00 0.00 0.00 46 1012.4
20260504230804 10 291 16.1 25.7 0.00 0.00 0.00 47 1012.5
20260504230604 10 297 17.7 29.0 0.00 0.00 0.00 46 1012.6
20260504230404 10 293 16.1 29.0 0.00 0.00 0.00 46 1012.5
20260504230204 10 310 12.9 29.0 0.00 0.00 0.00 47 1012.5
20260504230004 10 311 17.7 29.0 0.00 0.00 0.00 46 1012.6
20260504225804 10 327 17.7 29.0 0.00 0.00 0.00 46 1012.5
20260504225604 10 308 14.5 32.2 0.00 0.00 0.00 47 1012.5
20260504225404 10 298 11.3 38.6 0.00 0.00 0.00 47 1012.4
20260504225204 10 313 12.9 38.6 0.00 0.00 0.00 47 1012.4
20260504225005 10 323 16.1 38.6 0.00 0.00 0.00 46 1012.4
20260504224804 10 315 22.5 38.6 0.00 0.00 0.00 46 1012.3
20260504224604 10 336 19.3 38.6 0.00 0.00 0.00 46 1012.3
20260504224405 10 324 14.5 32.2 0.00 0.00 0.00 47 1012.4
20260504224204 10 320 19.3 40.2 0.00 0.00 0.00 46 1012.4
20260504224004 11 324 17.7 40.2 0.00 0.00 0.00 46 1012.4
20260504223805 11 331 17.7 40.2 0.00 0.00 0.00 46 1012.3
20260504223604 11 336 19.3 40.2 0.00 0.00 0.00 46 1012.4
20260504223404 11 331 25.7 40.2 0.00 0.00 0.00 45 1012.4
20260504223204 11 330 19.3 32.2 0.00 0.00 0.00 46 1012.3
20260504223004 11 318 16.1 32.2 0.00 0.00 0.00 46 1012.4
20260504222804 11 316 19.3 32.2 0.00 0.00 0.00 46 1012.4
20260504222605 11 331 16.1 32.2 0.00 0.00 0.00 47 1012.3
20260504222425 11 328 16.1 32.2 0.00 0.00 0.00 47 1012.3
20260504222226 11 335 17.7 33.8 0.00 0.00 0.00 46 1012.3
20260504222025 11 338 16.1 33.8 0.00 0.00 0.00 47 1012.2
20260504221804 11 331 16.1 33.8 0.00 0.00 0.00 46 1012.2
20260504221604 11 329 17.7 33.8 0.00 0.00 0.00 46 1012.2
20260504221405 11 329 20.9 33.8 0.00 0.00 0.00 46 1012.3
20260504221204 11 324 19.3 30.6 0.00 0.00 0.00 46 1012.3
20260504221004 11 339 19.3 30.6 0.00 0.00 0.00 46 1012.2
20260504220804 11 334 19.3 30.6 0.00 0.00 0.00 46 1012.2
20260504220604 11 345 19.3 29.0 0.00 0.00 0.00 47 1012.2
20260504220404 11 326 12.9 35.4 0.00 0.00 0.00 47 1012.3
20260504220205 11 333 16.1 35.4 0.00 0.00 0.00 47 1012.3
20260504220004 11 335 14.5 35.4 0.00 0.00 0.00 48 1012.2
20260504215804 11 339 12.9 35.4 0.00 0.00 0.00 47 1012.2
20260504215605 11 346 20.9 35.4 0.00 0.00 0.00 46 1012.2
20260504215404 11 331 14.5 27.4 0.00 0.00 0.00 47 1012.2
20260504215204 11 313 17.7 27.4 0.00 0.00 0.00 47 1012.2
20260504215004 11 306 19.3 30.6 0.00 0.00 0.00 46 1012.2
20260504214804 11 318 16.1 32.2 0.00 0.00 0.00 48 1012.2
20260504214604 11 324 14.5 32.2 0.00 0.00 0.00 48 1012.4
20260504214405 11 342 17.7 33.8 0.00 0.00 0.00 46 1012.4
20260504214204 11 334 16.1 33.8 0.00 0.00 0.00 45 1012.4
20260504214004 11 329 22.5 33.8 0.00 0.00 0.00 45 1012.5
20260504213804 11 329 19.3 33.8 0.00 0.00 0.00 45 1012.5
20260504213604 11 329 20.9 33.8 0.00 0.00 0.00 45 1012.5
20260504213404 11 316 22.5 33.8 0.00 0.00 0.00 46 1012.6
20260504213204 11 327 17.7 33.8 0.00 0.00 0.00 46 1012.6
20260504213025 11 328 20.9 33.8 0.00 0.00 0.00 45 1012.5
20260504212828 11 331 20.9 33.8 0.00 0.00 0.00 46 1012.6
20260504212625 11 327 19.3 33.8 0.00 0.00 0.00 46 1012.5
20260504212425 11 332 22.5 38.6 0.00 0.00 0.00 45 1012.5
20260504212225 11 346 17.7 38.6 0.00 0.00 0.00 45 1012.5
20260504212025 11 328 20.9 38.6 0.00 0.00 0.00 45 1012.5
20260504211804 11 341 20.9 38.6 0.00 0.00 0.00 44 1012.5
20260504211604 11 343 19.3 38.6 0.00 0.00 0.00 44 1012.4
20260504211404 11 338 20.9 43.5 0.00 0.00 0.00 44 1012.5
20260504211204 11 336 22.5 43.5 0.00 0.00 0.00 42 1012.5
20260504211004 11 324 17.7 43.5 0.00 0.00 0.00 43 1012.6
20260504210804 11 307 22.5 43.5 0.00 0.00 0.00 43 1012.6
20260504210604 11 336 22.5 43.5 0.00 0.00 0.00 43 1012.6
20260504210405 11 323 19.3 38.6 0.00 0.00 0.00 43 1012.6
20260504210204 11 336 22.5 38.6 0.00 0.00 0.00 43 1012.7
20260504210005 11 320 24.1 38.6 0.00 0.00 0.00 43 1012.6
20260504205805 11 314 22.5 35.4 0.00 0.00 0.00 43 1012.6
20260504205605 12 332 20.9 40.2 0.00 0.00 0.00 43 1012.7
20260504205404 11 310 22.5 41.8 0.00 0.00 0.00 43 1012.7
20260504205204 11 337 17.7 43.5 0.00 0.00 0.00 44 1012.7
20260504205004 11 329 20.9 43.5 0.00 0.00 0.00 44 1012.7
20260504204825 11 324 24.1 43.5 0.00 0.00 0.00 44 1012.8
20260504204625 12 307 24.1 43.5 0.00 0.03 0.00 44 1012.7
20260504204425 12 331 27.4 43.5 0.00 0.03 0.00 43 1012.7
20260504204204 12 333 20.9 41.8 0.00 0.03 0.00 45 1012.8
20260504204004 12 341 20.9 41.8 0.00 0.05 0.00 45 1012.8
20260504203804 12 340 20.9 41.8 0.00 0.08 0.00 44 1012.8
20260504203604 12 347 24.1 41.8 0.00 0.08 0.00 43 1012.8
20260504203405 12 317 20.9 35.4 0.00 0.10 0.00 44 1012.9
20260504203204 12 311 14.5 35.4 0.00 0.13 0.00 45 1012.8
20260504203007 12 329 19.3 35.4 0.00 0.15 0.00 46 1012.8
20260504202805 11 332 11.3 35.4 0.00 0.18 0.00 47 1012.8
20260504202605 11 333 16.1 35.4 0.00 0.18 0.00 46 1012.8
20260504202425 11 338 17.7 38.6 0.00 0.18 0.00 46 1012.8
20260504202225 11 328 20.9 38.6 0.00 0.18 0.00 44 1013.0
20260504202025 11 337 22.5 38.6 0.00 0.18 0.00 45 1012.8
20260504201804 11 331 20.9 38.6 0.00 0.18 0.00 45 1012.9
20260504201604 11 321 22.5 38.6 0.00 0.18 0.00 45 1013.0
20260504201404 11 349 20.9 35.4 0.00 0.18 0.00 47 1012.7
20260504201204 11 347 19.3 35.4 0.00 0.18 0.00 47 1012.8
20260504201004 11 335 20.9 35.4 0.00 0.18 0.00 47 1012.9
20260504200804 11 340 19.3 35.4 0.00 0.18 0.00 47 1012.8
20260504200604 11 335 16.1 35.4 0.00 0.18 0.00 47 1012.8
20260504200408 11 352 19.3 35.4 0.00 0.18 0.00 46 1012.8
20260504200204 11 345 19.3 41.8 0.00 0.18 0.00 45 1012.8
20260504200004 11 333 22.5 41.8 0.00 0.18 0.00 45 1012.9
20260504195804 11 343 25.7 41.8 0.00 0.18 0.00 45 1012.8
20260504195604 11 326 19.3 41.8 0.00 0.18 0.00 46 1013.0
20260504195404 11 348 20.9 41.8 0.00 0.18 0.00 46 1012.8
20260504195204 11 338 14.5 35.4 0.00 0.18 0.00 48 1012.9
20260504195004 11 323 14.5 35.4 0.00 0.18 0.00 48 1012.9
20260504194804 11 340 20.9 35.4 0.00 0.18 0.00 47 1012.8
20260504194604 11 343 17.7 35.4 0.00 0.18 0.00 48 1012.8
20260504194404 11 324 14.5 35.4 0.00 0.18 0.00 50 1012.9
20260504194204 10 340 19.3 35.4 0.00 0.18 0.00 48 1012.8
20260504194004 10 341 19.3 35.4 0.00 0.18 0.00 47 1012.8
20260504193805 10 346 20.9 35.4 0.00 0.18 0.00 49 1012.7
20260504193604 10 332 12.9 40.2 0.00 0.18 0.00 49 1012.8
20260504193404 10 317 19.3 40.2 0.00 0.18 0.00 49 1012.8
20260504193204 10 306 19.3 40.2 0.00 0.18 0.00 48 1012.8
20260504193004 10 304 20.9 40.2 0.00 0.18 0.00 48 1012.8
20260504192804 10 311 20.9 40.2 0.00 0.18 0.00 48 1012.8
20260504192605 10 331 17.7 35.4 0.00 0.18 0.00 51 1012.9
20260504192404 10 334 22.5 35.4 0.00 0.18 0.00 50 1012.8
20260504192204 10 347 17.7 35.4 0.00 0.18 0.00 49 1012.8
20260504192004 10 337 20.9 35.4 0.00 0.18 0.00 49 1012.9
20260504191825 10 332 19.3 33.8 0.00 0.18 0.00 48 1012.9
20260504191625 10 342 20.9 32.2 0.00 0.18 0.00 47 1012.9
20260504191426 10 338 17.7 43.5 0.00 0.18 0.00 46 1013.0
20260504191204 10 323 14.5 43.5 0.00 0.18 0.00 49 1013.0
20260504191004 10 318 16.1 43.5 0.00 0.18 0.00 48 1013.1
20260504190804 10 328 16.1 43.5 0.00 0.18 0.00 47 1013.1
20260504190625 10 339 19.3 43.5 0.00 0.18 0.00 47 1013.0
20260504190425 10 340 22.5 35.4 0.00 0.18 0.00 48 1012.8
20260504190225 10 324 17.7 35.4 0.00 0.18 0.00 48 1012.9
20260504190007 10 326 16.1 35.4 0.00 0.18 0.00 49 1012.8
20260504185804 10 309 16.1 33.8 0.00 0.18 0.00 49 1012.9
20260504185605 10 299 22.5 33.8 0.00 0.18 0.00 48 1012.9
20260504185404 10 324 19.3 33.8 0.00 0.18 0.00 49 1012.8
20260504185204 10 329 19.3 33.8 0.00 0.18 0.00 49 1012.8
20260504185004 10 330 17.7 30.6 0.00 0.18 0.00 49 1012.8
20260504184804 10 327 16.1 30.6 0.00 0.18 0.00 49 1012.9
20260504184604 10 322 17.7 29.0 0.00 0.18 0.00 50 1012.8
20260504184404 10 328 20.9 40.2 0.00 0.18 0.00 50 1012.8
20260504184204 10 318 19.3 40.2 0.00 0.18 0.00 50 1012.8
20260504184005 10 317 17.7 40.2 0.00 0.18 0.00 50 1012.7
20260504183805 10 305 17.7 40.2 0.00 0.18 0.00 50 1012.7
20260504183604 10 301 22.5 40.2 0.00 0.18 0.00 49 1012.7
20260504183405 10 312 19.3 35.4 0.00 0.18 0.00 49 1012.8
20260504183204 10 311 24.1 35.4 0.00 0.18 0.00 50 1012.8
20260504183004 10 331 22.5 35.4 0.00 0.18 0.00 51 1012.7
20260504182804 10 326 19.3 33.8 0.00 0.18 0.00 52 1012.7
20260504182605 10 333 19.3 33.8 0.00 0.18 0.00 52 1012.7
20260504182404 10 348 19.3 33.8 0.00 0.18 0.00 52 1012.8
20260504182204 10 331 17.7 41.8 0.00 0.18 0.00 50 1012.8
20260504182004 10 330 20.9 41.8 0.00 0.18 0.00 51 1012.8
20260504181825 10 312 20.9 41.8 0.00 0.18 0.00 50 1012.8
20260504181625 11 313 22.5 41.8 0.00 0.18 0.00 51 1012.8
20260504181425 11 323 19.3 41.8 0.00 0.18 0.00 51 1012.8
20260504181204 11 323 22.5 40.2 0.00 0.18 0.00 50 1012.9
20260504181004 11 315 20.9 33.8 0.00 0.18 0.00 51 1012.8
20260504180804 11 322 14.5 25.7 0.00 0.18 0.00 53 1012.9
20260504180604 11 321 12.9 29.0 0.00 0.18 0.00 54 1012.9
20260504180404 11 318 16.1 33.8 0.00 0.18 0.00 52 1012.8
20260504180205 11 334 12.9 33.8 0.00 0.18 0.00 53 1012.8
20260504180004 11 323 16.1 33.8 0.00 0.18 0.00 53 1012.8
20260504175804 11 328 17.7 33.8 0.00 0.18 0.00 53 1012.8
20260504175604 11 339 20.9 35.4 0.00 0.18 0.00 52 1012.7
20260504175404 10 339 16.1 35.4 0.00 0.18 0.00 52 1012.9
20260504175204 10 347 17.7 35.4 0.00 0.18 0.00 52 1012.9
20260504175004 10 324 19.3 35.4 0.00 0.18 0.00 53 1012.9
20260504174804 10 329 20.9 35.4 0.00 0.18 0.00 53 1013.0
20260504174604 10 334 20.9 35.4 0.00 0.18 0.00 53 1012.9
20260504174404 10 340 19.3 38.6 0.00 0.18 0.00 54 1012.8
20260504174204 10 323 20.9 38.6 0.00 0.18 0.00 55 1012.8
20260504174004 10 331 22.5 38.6 0.00 0.18 0.00 54 1012.8
20260504173804 10 325 20.9 38.6 0.00 0.18 0.00 53 1012.8
20260504173604 10 324 25.7 40.2 0.00 0.18 0.00 54 1012.9
20260504173404 10 332 24.1 45.1 0.00 0.18 0.00 54 1012.8
20260504173204 10 328 20.9 46.7 0.00 0.18 0.00 54 1012.9
20260504173004 10 312 24.1 46.7 0.00 0.18 0.00 53 1013.1
20260504172804 10 320 22.5 46.7 0.00 0.18 0.00 53 1012.9
20260504172604 10 309 27.4 46.7 0.00 0.18 0.00 53 1012.9
20260504172404 10 318 24.1 46.7 0.00 0.18 0.00 53 1012.8
20260504172204 10 329 22.5 45.1 0.00 0.18 0.00 53 1012.7
20260504172005 11 314 24.1 45.1 0.00 0.18 0.00 53 1012.8
20260504171804 11 309 24.1 40.2 0.00 0.18 0.00 52 1012.8
20260504171604 11 324 24.1 40.2 0.00 0.18 0.00 53 1012.7
20260504171405 11 333 20.9 33.8 0.00 0.18 0.00 52 1012.6
20260504171204 11 336 19.3 33.8 0.00 0.18 0.00 53 1012.5
20260504171004 11 324 20.9 41.8 0.00 0.18 0.00 52 1012.4
20260504170804 11 312 22.5 41.8 0.00 0.18 0.00 53 1012.5
20260504170604 11 325 16.1 41.8 0.00 0.18 0.00 53 1012.5
20260504170404 11 332 19.3 41.8 0.00 0.18 0.00 53 1012.6
20260504170204 11 346 14.5 41.8 0.00 0.18 0.00 54 1012.6
20260504160425 10 319 24.1 38.6 0.00 0.18 0.00 54 1012.2
20260504160225 10 336 22.5 33.8 0.00 0.18 0.00 54 1012.1
20260504151005 10 325 20.9 40.2 0.00 0.18 0.00 54 1012.3
20260504150804 10 328 22.5 40.2 0.00 0.18 0.00 54 1012.2
20260504150603 10 324 22.5 33.8 0.00 0.18 0.00 53 1012.3
20260504150404 10 331 19.3 33.8 0.00 0.18 0.00 54 1012.3
20260504150204 10 334 17.7 33.8 0.00 0.18 0.00 54 1012.3
20260504141204 9 339 11.3 27.4 0.00 0.18 0.00 61 1012.4
20260504141004 9 332 12.9 27.4 0.00 0.18 0.00 62 1012.4
20260504140804 9 340 12.9 27.4 0.00 0.18 0.00 62 1012.3
20260504140603 9 329 16.1 32.2 0.00 0.18 0.00 62 1012.3
20260504140404 9 329 16.1 32.2 0.00 0.18 0.00 63 1012.4
20260504140204 9 335 16.1 32.2 0.00 0.18 0.00 63 1012.2
20260504130804 8 311 3.2 6.4 0.00 0.18 0.00 64 1011.6
20260504130604 8 314 1.6 11.3 0.00 0.18 0.00 65 1011.5
20260504130404 8 302 3.2 11.3 0.00 0.18 0.00 64 1011.5
20260504130205 8 292 4.8 11.3 0.00 0.18 0.00 64 1011.4
20260504120225 8 319 4.8 8.0 0.00 0.18 0.00 60 1010.6
20260504110604 11 323 14.5 30.6 0.00 0.18 0.00 55 1008.8
20260504110404 11 328 12.9 30.6 0.00 0.18 0.00 54 1008.7
20260504110204 11 341 22.5 30.6 0.00 0.18 0.00 54 1008.7
20260504100603 11 309 1.6 6.4 0.00 0.18 0.00 50 1007.3
20260504100404 11 326 3.2 8.0 0.00 0.18 0.00 50 1007.3
20260504100204 12 10 4.8 11.3 0.00 0.18 0.00 49 1007.3
20260504082004 14 242 19.3 33.8 0.00 0.18 0.00 42 1006.8
20260504081804 14 242 19.3 30.6 0.00 0.18 0.00 42 1006.9
20260504081604 14 243 20.9 30.6 0.00 0.18 0.00 43 1006.9
20260504081403 14 245 20.9 30.6 0.00 0.18 0.00 43 1006.9
20260504081204 14 241 17.7 30.6 0.00 0.18 0.00 43 1006.9
20260504081003 14 253 19.3 30.6 0.00 0.18 0.00 43 1006.9
20260504080804 14 254 17.7 32.2 0.00 0.18 0.00 43 1006.9
20260504080604 14 257 16.1 33.8 0.00 0.18 0.00 43 1006.9
20260504080404 14 257 16.1 33.8 0.00 0.18 0.00 43 1006.9
20260504080204 14 253 16.1 33.8 0.00 0.18 0.00 43 1006.9
20260504070404 15 240 19.3 35.4 0.00 0.18 0.00 45 1007.3
20260504070204 15 238 25.7 40.2 0.00 0.18 0.00 44 1007.2
20260504060203 14 248 12.9 20.9 0.00 0.18 0.00 49 1007.7
20260504050604 14 248 16.1 27.4 0.00 0.18 0.18 49 1008.4
20260504050404 14 247 17.7 25.7 0.00 0.18 0.18 49 1008.5
20260504050204 14 247 17.7 30.6 0.00 0.18 0.18 50 1008.5
20260504050007 14 254 16.1 30.6 0.00 0.18 0.18 50 1008.5
20260504045804 14 249 16.1 30.6 0.00 0.18 0.18 50 1008.5
20260504045604 14 252 17.7 30.6 0.00 0.18 0.18 49 1008.5
20260504045425 14 248 19.3 30.6 0.00 0.18 0.18 50 1008.5
20260504045225 14 245 17.7 30.6 0.00 0.18 0.18 50 1008.5
20260504045025 14 241 17.7 32.2 0.00 0.18 0.18 50 1008.5
20260504044804 14 239 20.9 32.2 0.00 0.18 0.18 50 1008.4
20260504044604 14 247 17.7 32.2 0.00 0.18 0.18 50 1008.5
20260504044404 14 257 19.3 32.2 0.00 0.18 0.18 50 1008.5
20260504044204 14 242 20.9 32.2 0.00 0.18 0.18 50 1008.5
20260504044004 14 244 17.7 27.4 0.00 0.18 0.18 50 1008.5
20260504043804 14 245 17.7 27.4 0.00 0.18 0.18 50 1008.5
20260504043603 14 250 16.1 30.6 0.00 0.18 0.18 50 1008.6
20260504043403 14 249 12.9 30.6 0.00 0.18 0.18 50 1008.6
20260504043204 14 255 16.1 30.6 0.00 0.18 0.18 50 1008.5
20260504043004 14 262 17.7 30.6 0.00 0.18 0.18 50 1008.6
20260504042804 14 249 17.7 30.6 0.00 0.18 0.18 50 1008.5
20260504042604 14 250 17.7 29.0 0.00 0.18 0.18 50 1008.5
20260504042425 15 259 16.1 29.0 0.00 0.18 0.18 50 1008.5
20260504042224 15 255 16.1 29.0 0.00 0.18 0.18 50 1008.5
20260504042024 15 249 19.3 29.0 0.00 0.18 0.18 50 1008.4
20260504041804 15 241 19.3 29.0 0.00 0.18 0.18 49 1008.5
20260504041604 15 260 16.1 29.0 0.00 0.18 0.18 49 1008.5
20260504041404 15 254 16.1 30.6 0.00 0.18 0.18 49 1008.5
20260504041204 15 253 16.1 32.2 0.00 0.18 0.18 49 1008.5
20260504041003 15 258 16.1 32.2 0.00 0.18 0.18 49 1008.4
20260504040804 15 258 17.7 33.8 0.00 0.18 0.18 49 1008.4
20260504040604 15 250 17.7 33.8 0.00 0.18 0.18 48 1008.5
20260504040404 15 245 19.3 33.8 0.00 0.18 0.18 48 1008.4
20260504040204 15 250 22.5 33.8 0.00 0.18 0.18 48 1008.4